Location: Gwatt
(46.7204°N, 7.6223°E)
Time: 01:00:13
(UTC+00:00)

Envisat - Pass Details

Date: 02 December 2020
Orbit: 764 x 766 km, 98.1° (Epoch: 19 January)

Event Time Altitude Azimuth Distance (km) Brightness Sun altitude
Rises 06:19:56 0° 6° (N) 3,246 6.0 -6.1°
Reaches altitude 10° 06:22:24 10° 358° (N) 2,315 5.2 -5.7°
Maximum altitude 06:27:01 36° 293° (WNW) 1,195 3.5 -5.0°
Drops below altitude 10° 06:31:38 10° 228° (SW) 2,299 5.3 -4.3°
Sets 06:34:04 0° 220° (SW) 3,221 6.1 -3.9°
